TimeCDT,TemperatureF,Dew PointF,Humidity,Sea Level PressureIn,VisibilityMPH,Wind Direction,Wind SpeedMPH,Gust SpeedMPH,PrecipitationIn,Events,Conditions,WindDirDegrees,DateUTC
12:54 AM,61.0,55.0,81,30.17,10.0,Calm,Calm,-,N/A,,Clear,0,2013-08-18 05:54:00
1:54 AM,59.0,55.0,87,30.17,10.0,ESE,3.5,-,N/A,,Clear,110,2013-08-18 06:54:00
2:54 AM,55.9,54.0,93,30.17,9.0,East,5.8,-,N/A,,Clear,100,2013-08-18 07:54:00
3:54 AM,55.9,54.0,93,30.17,9.0,East,3.5,-,N/A,,Clear,100,2013-08-18 08:54:00
4:54 AM,55.0,53.1,93,30.19,8.0,East,4.6,-,N/A,,Clear,100,2013-08-18 09:54:00
5:54 AM,54.0,53.1,97,30.20,8.0,Calm,Calm,-,N/A,,Clear,0,2013-08-18 10:54:00
6:54 AM,55.0,53.1,93,30.21,7.0,Calm,Calm,-,N/A,,Clear,0,2013-08-18 11:54:00
7:54 AM,59.0,54.0,83,30.20,10.0,East,3.5,-,N/A,,Clear,100,2013-08-18 12:54:00
8:54 AM,66.0,57.0,73,30.21,10.0,Calm,Calm,-,N/A,,Clear,0,2013-08-18 13:54:00
9:54 AM,71.1,57.0,61,30.20,10.0,Calm,Calm,-,N/A,,Clear,0,2013-08-18 14:54:00
10:54 AM,75.0,57.9,55,30.19,10.0,ESE,4.6,-,N/A,,Clear,120,2013-08-18 15:54:00
11:54 AM,77.0,54.0,45,30.17,10.0,WSW,5.8,-,N/A,,Clear,240,2013-08-18 16:54:00
12:54 PM,80.1,53.1,39,30.15,10.0,South,10.4,16.1,N/A,,Partly Cloudy,180,2013-08-18 17:54:00
1:54 PM,81.0,52.0,36,30.14,10.0,SW,12.7,16.1,N/A,,Partly Cloudy,220,2013-08-18 18:54:00
2:54 PM,81.0,53.1,38,30.12,10.0,SSW,6.9,-,N/A,,Clear,210,2013-08-18 19:54:00
3:54 PM,81.0,53.1,38,30.11,10.0,SSW,11.5,-,N/A,,Clear,200,2013-08-18 20:54:00
4:54 PM,80.1,52.0,38,30.10,10.0,SSW,9.2,-,N/A,,Clear,200,2013-08-18 21:54:00
5:54 PM,79.0,52.0,39,30.09,10.0,SW,11.5,18.4,N/A,,Clear,220,2013-08-18 22:54:00
6:54 PM,77.0,53.1,43,30.09,10.0,SW,8.1,-,N/A,,Clear,230,2013-08-18 23:54:00
7:54 PM,73.0,55.9,55,30.08,10.0,SW,4.6,-,N/A,,Clear,230,2013-08-19 00:54:00
8:54 PM,70.0,55.0,59,30.08,10.0,WSW,6.9,-,N/A,,Clear,250,2013-08-19 01:54:00
9:54 PM,69.1,55.9,63,30.08,8.0,WSW,6.9,-,N/A,,Clear,240,2013-08-19 02:54:00
10:54 PM,66.0,57.9,75,30.07,10.0,SSW,3.5,-,N/A,,Clear,210,2013-08-19 03:54:00
11:54 PM,64.9,57.0,75,30.08,10.0,SSW,3.5,-,N/A,,Clear,210,2013-08-19 04:54:00